Location: Eschentzwiller
(47.7125°N, 7.3981°E)
Time: 00:20:45
(UTC+00:00)

Cosmos 1455 - Pass Details

Date: 27 October 2020
Orbit: 499 x 521 km, 82.5° (Epoch: 26 November)

Event Time Altitude Azimuth Distance (km) Brightness Sun altitude
Rises 18:24:56 0° 189° (S) 2,595 5.8 -21.5°
Reaches altitude 10° 18:27:02 10° 190° (S) 1,719 4.9 -21.9°
Maximum altitude 18:30:48 83° 279° (W) 520 2.1 -22.5°
Enters shadow 18:30:57 81° 326° (NW) 524 2.1 -22.5°
